Flag for U.S.A. Weather past 2 weeks in Lynchburg, Virginia, U.S.A.

Now
63 °F

Sunny.


Feels Like: 63 °F
Forecast: 38 / 69 °F
Wind: 5 mph from Southwest

Location: Lynchburg Regional Airport

Current Time: Oct 25, 2014 at 7:36:29 PM

Latest Report: Oct 25, 2014 at 6:54 PM


Visibility: 10 mi

Pressure: 29.85 "Hg

Humidity: 48%

Dew point: 43 °F

Location of LynchburgLocation

Historic Weather in Lynchburg — Graph

°F

Lynchburg temperature yesterday

Maximum temperature yesterday: 67 °F (at 2:54 PM)
Minimum temperature yesterday: 39 °F (at 7:54 AM)
Average temperature yesterday: 51 °F

Past Weeks' High & Low Weather Summary

 TemperatureHumidityPressure
High73 °F (Oct 14, 5:54 PM)100% (Oct 10, 8:54 PM)30.29 "Hg (Oct 10, 8:54 PM)
Low35 °F (Oct 20, 5:54 AM)34% (Oct 19, 3:54 PM)29.71 "Hg (Oct 18, 3:54 AM)
Average56 °F80%29.99 "Hg
* Reported Oct 10 5:01 PM — Oct 25 5:54 PM, Lynchburg, Weather by CustomWeather, © 2014

Note: Actual official high and low records may vary slightly from our data, if they occured in-between our weather recording intervals... More about our weather records

Advertising

Lynchburg weather history for previous 24 hours

 ConditionsComfort  
Time TempWeatherWind HumidityBarometerVisibility
5:54 PM
Oct 25
66 °FSunny.5 mph43%29.87 "Hg10 mi
4:54 PM69 °FSunny.6 mph38%29.87 "Hg10 mi
3:54 PM69 °FSunny.7 mph36%29.88 "Hg10 mi
2:54 PM69 °FSunny.8 mph38%29.90 "Hg10 mi
1:54 PM68 °FSunny.8 mph36%29.93 "Hg10 mi
12:54 PM65 °FSunny.9 mph42%29.98 "Hg10 mi
11:54 AM63 °FSunny.8 mph41%30.01 "Hg10 mi
10:54 AM58 °FSunny.7 mph51%30.03 "Hg10 mi
9:54 AM52 °FSunny.6 mph75%30.04 "Hg10 mi
8:54 AM42 °FSunny.No wind92%30.04 "Hg10 mi
7:54 AM35 °FClear.No wind100%30.02 "Hg10 mi
6:54 AM37 °FClear.No wind93%30.02 "Hg10 mi
5:54 AM38 °FClear.No wind93%30.01 "Hg10 mi
4:54 AM37 °FClear.No wind93%29.99 "Hg10 mi
3:54 AM40 °FClear.No wind89%29.99 "Hg10 mi
2:54 AM50 °FClear.3 mph59%29.98 "Hg10 mi
1:54 AM40 °FClear.No wind93%29.99 "Hg10 mi
12:54 AM39 °FClear.3 mph96%29.99 "HgN/A
11:54 PM
Oct 24
41 °FClear.No wind96%29.99 "Hg10 mi
10:54 PM43 °FClear.No wind93%30.00 "Hg10 mi
9:54 PM45 °FClear.No wind93%29.99 "Hg10 mi
8:54 PM48 °FClear.No wind83%29.98 "Hg10 mi
7:54 PM49 °FClear.No wind80%29.99 "Hg10 mi
Weather by CustomWeather, © 2014

See weather overviewHow to use our weather pages